Location: ???????
(38.3360°N, 23.6977°E)
Time: 21:28:19
(UTC+00:00)

Cosmos 304 Rocket - Pass Details

Date: 17 November 2025
Orbit: 668 x 677 km, 74.0° (Epoch: 11 December)

Event Time Altitude Azimuth Distance (km) Brightness Sun altitude
Rises 16:25:21 0° 185° (S) 2,995 7.3 -14.6°
Reaches altitude 10° 16:27:39 10° 181° (S) 2,088 6.4 -15.1°
Maximum altitude 16:32:14 54° 104° (ESE) 815 3.8 -15.9°
Enters shadow 16:35:35 18° 32° (NNE) 1,633 5.3 -16.6°
